Year,Month,Day,Hour,Minute,Value (Times are PST for temperature in C)
2012,01,14,00,00,1.30
2012,01,14,00,01,1.30
2012,01,14,00,02,1.30
2012,01,14,00,03,1.30
2012,01,14,00,04,1.30
2012,01,14,00,05,1.30
2012,01,14,00,06,1.30
2012,01,14,00,07,1.30
2012,01,14,00,08,1.30
2012,01,14,00,09,1.30
2012,01,14,00,10,1.30
2012,01,14,00,11,1.30
2012,01,14,00,12,1.30
2012,01,14,00,13,1.30
2012,01,14,00,14,1.30
2012,01,14,00,15,1.30
2012,01,14,00,16,1.30
2012,01,14,00,17,1.30
2012,01,14,00,18,1.30
2012,01,14,00,19,1.30
2012,01,14,00,20,1.30
2012,01,14,00,21,1.30
2012,01,14,00,22,1.30
2012,01,14,00,23,1.30
2012,01,14,00,24,1.30
2012,01,14,00,25,1.30
2012,01,14,00,26,1.30
2012,01,14,00,27,1.30
2012,01,14,00,28,1.30
2012,01,14,00,29,1.30
2012,01,14,00,30,1.30
2012,01,14,00,31,1.30
2012,01,14,00,32,1.30
2012,01,14,00,33,1.30
2012,01,14,00,34,1.30
2012,01,14,00,35,1.30
2012,01,14,00,36,1.30
2012,01,14,00,37,1.30
2012,01,14,00,38,1.30
2012,01,14,00,39,1.30
2012,01,14,00,40,1.30
2012,01,14,00,41,1.30
2012,01,14,00,42,1.30
2012,01,14,00,43,1.30
2012,01,14,00,44,1.30
2012,01,14,00,45,1.30
2012,01,14,00,46,1.30
2012,01,14,00,47,1.30
2012,01,14,00,48,1.30
2012,01,14,00,49,1.30
2012,01,14,00,50,1.20
2012,01,14,00,51,1.20
2012,01,14,00,52,1.20
2012,01,14,00,53,1.20
2012,01,14,00,54,1.20
2012,01,14,00,55,1.20
2012,01,14,00,56,1.20
2012,01,14,00,57,1.20
2012,01,14,00,58,1.20
2012,01,14,00,59,1.20
2012,01,14,01,00,1.10
2012,01,14,01,01,1.10
2012,01,14,01,02,1.10
2012,01,14,01,03,1.10
2012,01,14,01,04,1.10
2012,01,14,01,05,1.10
2012,01,14,01,06,1.10
2012,01,14,01,07,1.10
2012,01,14,01,08,1.10
2012,01,14,01,09,1.10
2012,01,14,01,10,1.10
2012,01,14,01,11,1.10
2012,01,14,01,12,1.10
2012,01,14,01,13,1.10
2012,01,14,01,14,1.10
2012,01,14,01,15,1.10
2012,01,14,01,16,1.10
2012,01,14,01,17,1.10
2012,01,14,01,18,1.10
2012,01,14,01,19,1.20
2012,01,14,01,20,1.20
2012,01,14,01,21,1.20
2012,01,14,01,22,1.20
2012,01,14,01,23,1.30
2012,01,14,01,24,1.30
2012,01,14,01,25,1.30
2012,01,14,01,26,1.30
2012,01,14,01,27,1.40
2012,01,14,01,28,1.50
2012,01,14,01,29,1.50
2012,01,14,01,30,1.60
2012,01,14,01,31,1.60
2012,01,14,01,32,1.60
2012,01,14,01,33,1.60
2012,01,14,01,34,1.70
2012,01,14,01,35,1.70
2012,01,14,01,36,1.70
2012,01,14,01,37,1.70
2012,01,14,01,38,1.80
2012,01,14,01,39,1.80
2012,01,14,01,40,1.80
2012,01,14,01,41,1.80
2012,01,14,01,42,1.90
2012,01,14,01,43,1.90
2012,01,14,01,44,1.90
2012,01,14,01,45,1.90
2012,01,14,01,46,1.90
2012,01,14,01,47,1.90
2012,01,14,01,48,1.90
2012,01,14,01,49,1.90
2012,01,14,01,50,1.90
2012,01,14,01,51,1.90
2012,01,14,01,52,1.90
2012,01,14,01,53,1.90
2012,01,14,01,54,1.90
2012,01,14,01,55,1.90
2012,01,14,01,56,1.90
2012,01,14,01,57,1.90
2012,01,14,01,58,1.90
2012,01,14,01,59,1.90
2012,01,14,02,00,1.90
2012,01,14,02,01,1.90
2012,01,14,02,02,1.90
2012,01,14,02,03,1.90
2012,01,14,02,04,1.90
2012,01,14,02,05,1.90
2012,01,14,02,06,1.90
2012,01,14,02,07,1.90
2012,01,14,02,08,1.90
2012,01,14,02,09,1.90
2012,01,14,02,10,1.90
2012,01,14,02,11,1.90
2012,01,14,02,12,1.90
2012,01,14,02,13,1.90
2012,01,14,02,14,1.90
2012,01,14,02,15,1.90
2012,01,14,02,16,1.90
2012,01,14,02,17,2.00
2012,01,14,02,18,2.00
2012,01,14,02,19,2.00
2012,01,14,02,20,2.00
2012,01,14,02,21,2.00
2012,01,14,02,22,2.00
2012,01,14,02,23,2.00
2012,01,14,02,24,2.00
2012,01,14,02,25,2.00
2012,01,14,02,26,2.00
2012,01,14,02,27,2.00
2012,01,14,02,28,2.00
2012,01,14,02,29,2.00
2012,01,14,02,30,2.00
2012,01,14,02,31,2.00
2012,01,14,02,32,2.00
2012,01,14,02,33,2.00
2012,01,14,02,34,2.00
2012,01,14,02,35,2.10
2012,01,14,02,36,2.10
2012,01,14,02,37,2.10
2012,01,14,02,38,2.10
2012,01,14,02,39,2.10
2012,01,14,02,40,2.10
2012,01,14,02,41,2.10
2012,01,14,02,42,2.10
2012,01,14,02,43,2.20
2012,01,14,02,44,2.20
2012,01,14,02,45,2.20
2012,01,14,02,46,2.20
2012,01,14,02,47,2.20
2012,01,14,02,48,2.20
2012,01,14,02,49,2.20
2012,01,14,02,50,2.20
2012,01,14,02,51,2.20
2012,01,14,02,52,2.20
2012,01,14,02,53,2.20
2012,01,14,02,54,2.20
2012,01,14,02,55,2.20
2012,01,14,02,56,2.20
2012,01,14,02,57,2.20
2012,01,14,02,58,2.20
2012,01,14,02,59,2.20
2012,01,14,03,00,2.30
2012,01,14,03,01,2.30
2012,01,14,03,02,2.30
2012,01,14,03,03,2.30
2012,01,14,03,04,2.30
2012,01,14,03,05,2.30
2012,01,14,03,06,2.30
2012,01,14,03,07,2.30
2012,01,14,03,08,2.30
2012,01,14,03,09,2.30
2012,01,14,03,10,2.30
2012,01,14,03,11,2.30
2012,01,14,03,12,2.30
2012,01,14,03,13,2.30
2012,01,14,03,14,2.30
2012,01,14,03,15,2.30
2012,01,14,03,16,2.30
2012,01,14,03,17,2.30
2012,01,14,03,18,2.30
2012,01,14,03,19,2.40
2012,01,14,03,20,2.30
2012,01,14,03,21,2.40
2012,01,14,03,22,2.40
2012,01,14,03,23,2.40
2012,01,14,03,24,2.40
2012,01,14,03,25,2.40
2012,01,14,03,26,2.40
2012,01,14,03,27,2.50
2012,01,14,03,28,2.50
2012,01,14,03,29,2.50
2012,01,14,03,30,2.60
2012,01,14,03,31,2.60
2012,01,14,03,32,2.70
2012,01,14,03,33,2.70
2012,01,14,03,34,2.80
2012,01,14,03,35,2.80
2012,01,14,03,36,2.80
2012,01,14,03,37,2.80
2012,01,14,03,38,2.80
2012,01,14,03,39,2.80
2012,01,14,03,40,2.80
2012,01,14,03,41,2.80
2012,01,14,03,42,2.70
2012,01,14,03,43,2.70
2012,01,14,03,44,2.70
2012,01,14,03,45,2.70
2012,01,14,03,46,2.70
2012,01,14,03,47,2.70
2012,01,14,03,48,2.70
2012,01,14,03,49,2.70
2012,01,14,03,50,2.80
2012,01,14,03,51,2.80
2012,01,14,03,52,2.80
2012,01,14,03,53,2.80
2012,01,14,03,54,2.80
2012,01,14,03,55,2.80
2012,01,14,03,56,2.80
2012,01,14,03,57,2.80
2012,01,14,03,58,2.80
2012,01,14,03,59,2.80
2012,01,14,04,00,2.80
2012,01,14,04,01,2.80
2012,01,14,04,02,2.80
2012,01,14,04,03,2.80
2012,01,14,04,04,2.80
2012,01,14,04,05,2.80
2012,01,14,04,06,2.80
2012,01,14,04,07,2.80
2012,01,14,04,08,2.80
2012,01,14,04,09,2.80
2012,01,14,04,10,2.80
2012,01,14,04,11,2.80
2012,01,14,04,12,2.80
2012,01,14,04,13,2.80
2012,01,14,04,14,2.80
2012,01,14,04,15,2.80
2012,01,14,04,16,2.80
2012,01,14,04,17,2.80
2012,01,14,04,18,2.80
2012,01,14,04,19,2.80
2012,01,14,04,20,2.80
2012,01,14,04,21,2.80
2012,01,14,04,22,2.80
2012,01,14,04,23,2.70
2012,01,14,04,24,2.70
2012,01,14,04,25,2.70
2012,01,14,04,26,2.70
2012,01,14,04,27,2.70
2012,01,14,04,28,2.70
2012,01,14,04,29,2.60
2012,01,14,04,30,2.60
2012,01,14,04,31,2.60
2012,01,14,04,32,2.60
2012,01,14,04,33,2.60
2012,01,14,04,34,2.60
2012,01,14,04,35,2.60
2012,01,14,04,36,2.60
2012,01,14,04,37,2.50
2012,01,14,04,38,2.50
2012,01,14,04,39,2.50
2012,01,14,04,40,2.40
2012,01,14,04,41,2.40
2012,01,14,04,42,2.40
2012,01,14,04,43,2.40
2012,01,14,04,44,2.40
2012,01,14,04,45,2.30
2012,01,14,04,46,2.30
2012,01,14,04,47,2.30
2012,01,14,04,48,2.30
2012,01,14,04,49,2.30
2012,01,14,04,50,2.30
2012,01,14,04,51,2.30
2012,01,14,04,52,2.30
2012,01,14,04,53,2.30
2012,01,14,04,54,2.30
2012,01,14,04,55,2.30
2012,01,14,04,56,2.30
2012,01,14,04,57,2.30
2012,01,14,04,58,2.30
2012,01,14,04,59,2.30
2012,01,14,05,00,2.30
2012,01,14,05,01,2.30
2012,01,14,05,02,2.30
2012,01,14,05,03,2.30
2012,01,14,05,04,2.30
2012,01,14,05,05,2.30
2012,01,14,05,06,2.30
2012,01,14,05,07,2.40
2012,01,14,05,08,2.40
2012,01,14,05,09,2.40
2012,01,14,05,10,2.50
2012,01,14,05,11,2.50
2012,01,14,05,12,2.50
2012,01,14,05,13,2.60
2012,01,14,05,14,2.60
2012,01,14,05,15,2.60
2012,01,14,05,16,2.60
2012,01,14,05,17,2.60
2012,01,14,05,18,2.60
2012,01,14,05,19,2.60
2012,01,14,05,20,2.60
2012,01,14,05,21,2.60
2012,01,14,05,22,2.60
2012,01,14,05,23,2.60
2012,01,14,05,24,2.60
2012,01,14,05,25,2.60
2012,01,14,05,26,2.60
2012,01,14,05,27,2.60
2012,01,14,05,28,2.70
2012,01,14,05,29,2.70
2012,01,14,05,30,2.70
2012,01,14,05,31,2.70
2012,01,14,05,32,2.70
2012,01,14,05,33,2.70
2012,01,14,05,34,2.70
2012,01,14,05,35,2.70
2012,01,14,05,36,2.70
2012,01,14,05,37,2.70
2012,01,14,05,38,2.70
2012,01,14,05,39,2.70
2012,01,14,05,40,2.70
2012,01,14,05,41,2.70
2012,01,14,05,42,2.70
2012,01,14,05,43,2.60
2012,01,14,05,44,2.60
2012,01,14,05,45,2.60
2012,01,14,05,46,2.60
2012,01,14,05,47,2.60
2012,01,14,05,48,2.60
2012,01,14,05,49,2.60
2012,01,14,05,50,2.60
2012,01,14,05,51,2.60
2012,01,14,05,52,2.60
2012,01,14,05,53,2.60
2012,01,14,05,54,2.60
2012,01,14,05,55,2.60
2012,01,14,05,56,2.60
2012,01,14,05,57,2.60
2012,01,14,05,58,2.60
2012,01,14,05,59,2.50
2012,01,14,06,00,2.50
2012,01,14,06,01,2.50
2012,01,14,06,02,2.50
2012,01,14,06,03,2.50
2012,01,14,06,04,2.50
2012,01,14,06,05,2.50
2012,01,14,06,06,2.50
2012,01,14,06,07,2.50
2012,01,14,06,08,2.40
2012,01,14,06,09,2.40
2012,01,14,06,10,2.50
2012,01,14,06,11,2.50
2012,01,14,06,12,2.50
2012,01,14,06,13,2.50
2012,01,14,06,14,2.50
2012,01,14,06,15,2.50
2012,01,14,06,16,2.50
2012,01,14,06,17,2.50
2012,01,14,06,18,2.50
2012,01,14,06,19,2.50
2012,01,14,06,20,2.50
2012,01,14,06,21,2.40
2012,01,14,06,22,2.40
2012,01,14,06,23,2.40
2012,01,14,06,24,2.40
2012,01,14,06,25,2.40
2012,01,14,06,26,2.30
2012,01,14,06,27,2.30
2012,01,14,06,28,2.30
2012,01,14,06,29,2.30
2012,01,14,06,30,2.30
2012,01,14,06,31,2.30
2012,01,14,06,32,2.30
2012,01,14,06,33,2.20
2012,01,14,06,34,2.20
2012,01,14,06,35,2.20
2012,01,14,06,36,2.20
2012,01,14,06,37,2.20
2012,01,14,06,38,2.20
2012,01,14,06,39,2.20
2012,01,14,06,40,2.20
2012,01,14,06,41,2.20
2012,01,14,06,42,2.10
2012,01,14,06,43,2.10
2012,01,14,06,44,2.10
2012,01,14,06,45,2.10
2012,01,14,06,46,2.10
2012,01,14,06,47,2.10
2012,01,14,06,48,2.10
2012,01,14,06,49,2.10
2012,01,14,06,50,2.10
2012,01,14,06,51,2.10
2012,01,14,06,52,2.00
2012,01,14,06,53,2.00
2012,01,14,06,54,2.00
2012,01,14,06,55,2.00
2012,01,14,06,56,2.00
2012,01,14,06,57,2.00
2012,01,14,06,58,2.00
2012,01,14,06,59,2.00
2012,01,14,07,00,1.90
2012,01,14,07,01,1.90
2012,01,14,07,02,1.90
2012,01,14,07,03,1.90
2012,01,14,07,04,1.90
2012,01,14,07,05,1.90
2012,01,14,07,06,1.90
2012,01,14,07,07,1.90
2012,01,14,07,08,1.80
2012,01,14,07,09,1.80
2012,01,14,07,10,1.80
2012,01,14,07,11,1.80
2012,01,14,07,12,1.80
2012,01,14,07,13,1.80
2012,01,14,07,14,1.80
2012,01,14,07,15,1.80
2012,01,14,07,16,1.80
2012,01,14,07,17,1.80
2012,01,14,07,18,1.80
2012,01,14,07,19,1.80
2012,01,14,07,20,1.80
2012,01,14,07,21,1.80
2012,01,14,07,22,1.80
2012,01,14,07,23,1.80
2012,01,14,07,24,1.70
2012,01,14,07,25,1.70
2012,01,14,07,26,1.80
2012,01,14,07,27,1.80
2012,01,14,07,28,1.80
2012,01,14,07,29,1.80
2012,01,14,07,30,1.80
2012,01,14,07,31,1.80
2012,01,14,07,32,1.80
2012,01,14,07,33,1.80
2012,01,14,07,34,1.80
2012,01,14,07,35,1.80
2012,01,14,07,36,1.70
2012,01,14,07,37,1.70
2012,01,14,07,38,1.70
2012,01,14,07,39,1.70
2012,01,14,07,40,1.70
2012,01,14,07,41,1.70
2012,01,14,07,42,1.70
2012,01,14,07,43,1.70
2012,01,14,07,44,1.70
2012,01,14,07,45,1.70
2012,01,14,07,46,1.70
2012,01,14,07,47,1.80
2012,01,14,07,48,1.80
2012,01,14,07,49,1.70
2012,01,14,07,50,1.70
2012,01,14,07,51,1.70
2012,01,14,07,52,1.70
2012,01,14,07,53,1.70
2012,01,14,07,54,1.70
2012,01,14,07,55,1.70
2012,01,14,07,56,1.70
2012,01,14,07,57,1.70
2012,01,14,07,58,1.70
2012,01,14,07,59,1.60
2012,01,14,08,00,1.60
2012,01,14,08,01,1.60
2012,01,14,08,02,1.60
2012,01,14,08,03,1.60
2012,01,14,08,04,1.60
2012,01,14,08,05,1.60
2012,01,14,08,06,1.60
2012,01,14,08,07,1.60
2012,01,14,08,08,1.60
2012,01,14,08,09,1.50
2012,01,14,08,10,1.50
2012,01,14,08,11,1.50
2012,01,14,08,12,1.50
2012,01,14,08,13,1.50
2012,01,14,08,14,1.50
2012,01,14,08,15,1.50
2012,01,14,08,16,1.50
2012,01,14,08,17,1.60
2012,01,14,08,18,1.60
2012,01,14,08,19,1.70
2012,01,14,08,20,1.70
2012,01,14,08,21,1.80
2012,01,14,08,22,1.80
2012,01,14,08,23,1.80
2012,01,14,08,24,1.80
2012,01,14,08,25,1.80
2012,01,14,08,26,1.80
2012,01,14,08,27,1.80
2012,01,14,08,28,1.90
2012,01,14,08,29,1.90
2012,01,14,08,30,1.90
2012,01,14,08,31,2.00
2012,01,14,08,32,2.00
2012,01,14,08,33,2.00
2012,01,14,08,34,2.00
2012,01,14,08,35,2.00
2012,01,14,08,36,2.00
2012,01,14,08,37,2.00
2012,01,14,08,38,2.00
2012,01,14,08,39,2.00
2012,01,14,08,40,1.90
2012,01,14,08,41,1.90
2012,01,14,08,42,1.90
2012,01,14,08,43,1.90
2012,01,14,08,44,1.90
2012,01,14,08,45,1.90
2012,01,14,08,46,1.90
2012,01,14,08,47,1.90
2012,01,14,08,48,1.90
2012,01,14,08,49,1.90
2012,01,14,08,50,1.90
2012,01,14,08,51,1.90
2012,01,14,08,52,1.90
2012,01,14,08,53,1.90
2012,01,14,08,54,1.90
2012,01,14,08,55,1.90
2012,01,14,08,56,2.00
2012,01,14,08,57,2.00
2012,01,14,08,58,2.00
2012,01,14,08,59,2.00
2012,01,14,09,00,2.00
2012,01,14,09,01,2.00
2012,01,14,09,02,2.00
2012,01,14,09,03,2.00
2012,01,14,09,04,2.10
2012,01,14,09,05,2.10
2012,01,14,09,06,2.10
2012,01,14,09,07,2.10
2012,01,14,09,08,2.20
2012,01,14,09,09,2.20
2012,01,14,09,10,2.20
2012,01,14,09,11,2.20
2012,01,14,09,12,2.20
2012,01,14,09,13,2.30
2012,01,14,09,14,2.30
2012,01,14,09,15,2.30
2012,01,14,09,16,2.40
2012,01,14,09,17,2.40
2012,01,14,09,18,2.50
2012,01,14,09,19,2.50
2012,01,14,09,20,2.60
2012,01,14,09,21,2.60
2012,01,14,09,22,2.70
2012,01,14,09,23,2.70
2012,01,14,09,24,2.70
2012,01,14,09,25,2.80
2012,01,14,09,26,2.80
2012,01,14,09,27,2.90
2012,01,14,09,28,2.90
2012,01,14,09,29,2.90
2012,01,14,09,30,3.00
2012,01,14,09,31,3.00
2012,01,14,09,32,3.10
2012,01,14,09,33,3.20
2012,01,14,09,34,3.30
2012,01,14,09,35,3.30
2012,01,14,09,36,3.40
2012,01,14,09,37,3.50
2012,01,14,09,38,3.60
2012,01,14,09,39,3.70
2012,01,14,09,40,3.80
2012,01,14,09,41,3.80
2012,01,14,09,42,3.90
2012,01,14,09,43,3.90
2012,01,14,09,44,4.00
2012,01,14,09,45,4.10
2012,01,14,09,46,4.10
2012,01,14,09,47,4.10
2012,01,14,09,48,4.20
2012,01,14,09,49,4.20
2012,01,14,09,50,4.20
2012,01,14,09,51,4.20
2012,01,14,09,52,4.20
2012,01,14,09,53,4.20
2012,01,14,09,54,4.20
2012,01,14,09,55,4.20
2012,01,14,09,56,4.20
2012,01,14,09,57,4.10
2012,01,14,09,58,4.10
2012,01,14,09,59,4.00
2012,01,14,10,00,3.90
2012,01,14,10,01,3.90
2012,01,14,10,02,3.80
2012,01,14,10,03,3.80
2012,01,14,10,04,3.80
2012,01,14,10,05,3.80
2012,01,14,10,06,3.80
2012,01,14,10,07,3.80
2012,01,14,10,08,3.80
2012,01,14,10,09,3.80
2012,01,14,10,10,3.80
2012,01,14,10,11,3.80
2012,01,14,10,12,3.80
2012,01,14,10,13,3.90
2012,01,14,10,14,3.90
2012,01,14,10,15,3.90
2012,01,14,10,16,3.90
2012,01,14,10,17,3.90
2012,01,14,10,18,3.90
2012,01,14,10,19,4.00
2012,01,14,10,20,4.00
2012,01,14,10,21,4.00
2012,01,14,10,22,4.00
2012,01,14,10,23,4.00
2012,01,14,10,24,4.10
2012,01,14,10,25,4.10
2012,01,14,10,26,4.10
2012,01,14,10,27,4.10
2012,01,14,10,28,4.10
2012,01,14,10,29,4.10
2012,01,14,10,30,4.10
2012,01,14,10,31,4.10
2012,01,14,10,32,4.10
2012,01,14,10,33,4.20
2012,01,14,10,34,4.20
2012,01,14,10,35,4.20
2012,01,14,10,36,4.20
2012,01,14,10,37,4.20
2012,01,14,10,38,4.30
2012,01,14,10,39,4.30
2012,01,14,10,40,4.30
2012,01,14,10,41,4.30
2012,01,14,10,42,4.30
2012,01,14,10,43,4.30
2012,01,14,10,44,4.20
2012,01,14,10,45,4.20
2012,01,14,10,46,4.10
2012,01,14,10,47,4.10
2012,01,14,10,48,4.00
2012,01,14,10,49,4.00
2012,01,14,10,50,4.00
2012,01,14,10,51,3.90
2012,01,14,10,52,3.90
2012,01,14,10,53,3.80
2012,01,14,10,54,3.80
2012,01,14,10,55,3.80
2012,01,14,10,56,3.80
2012,01,14,10,57,3.80
2012,01,14,10,58,3.80
2012,01,14,10,59,3.90
2012,01,14,11,00,3.80
2012,01,14,11,01,3.90
2012,01,14,11,02,3.90
2012,01,14,11,03,3.90
2012,01,14,11,04,3.90
2012,01,14,11,05,3.80
2012,01,14,11,06,3.80
2012,01,14,11,07,3.80
2012,01,14,11,08,3.80
2012,01,14,11,09,3.80
2012,01,14,11,10,3.80
2012,01,14,11,11,3.70
2012,01,14,11,12,3.70
2012,01,14,11,13,3.70
2012,01,14,11,14,3.70
2012,01,14,11,15,3.70
2012,01,14,11,16,3.70
2012,01,14,11,17,3.70
2012,01,14,11,18,3.70
2012,01,14,11,19,3.70
2012,01,14,11,20,3.70
2012,01,14,11,21,3.70
2012,01,14,11,22,3.70
2012,01,14,11,23,3.70
2012,01,14,11,24,3.70
2012,01,14,11,25,3.80
2012,01,14,11,26,3.80
2012,01,14,11,27,3.80
2012,01,14,11,28,3.90
2012,01,14,11,29,3.90
2012,01,14,11,30,4.00
2012,01,14,11,31,4.00
2012,01,14,11,32,4.10
2012,01,14,11,33,4.20
2012,01,14,11,34,4.20
2012,01,14,11,35,4.20
2012,01,14,11,36,4.20
2012,01,14,11,37,4.20
2012,01,14,11,38,4.30
2012,01,14,11,39,4.40
2012,01,14,11,40,4.50
2012,01,14,11,41,4.50
2012,01,14,11,42,4.50
2012,01,14,11,43,4.50
2012,01,14,11,44,4.40
2012,01,14,11,45,4.40
2012,01,14,11,46,4.40
2012,01,14,11,47,4.40
2012,01,14,11,48,4.30
2012,01,14,11,49,4.30
2012,01,14,11,50,4.30
2012,01,14,11,51,4.30
2012,01,14,11,52,4.30
2012,01,14,11,53,4.30
2012,01,14,11,54,4.30
2012,01,14,11,55,4.30
2012,01,14,11,56,4.30
2012,01,14,11,57,4.30
2012,01,14,11,58,4.30
2012,01,14,11,59,4.30
2012,01,14,12,00,4.30
2012,01,14,12,01,4.30
2012,01,14,12,02,4.30
2012,01,14,12,03,4.30
2012,01,14,12,04,4.30
2012,01,14,12,05,4.30
2012,01,14,12,06,4.30
2012,01,14,12,07,4.30
2012,01,14,12,08,4.30
2012,01,14,12,09,4.30
2012,01,14,12,10,4.40
2012,01,14,12,11,4.40
2012,01,14,12,12,4.40
2012,01,14,12,13,4.40
2012,01,14,12,14,4.40
2012,01,14,12,15,4.50
2012,01,14,12,16,4.50
2012,01,14,12,17,4.60
2012,01,14,12,18,4.60
2012,01,14,12,19,4.70
2012,01,14,12,20,4.70
2012,01,14,12,21,4.60
2012,01,14,12,22,4.60
2012,01,14,12,23,4.60
2012,01,14,12,24,4.60
2012,01,14,12,25,4.60
2012,01,14,12,26,4.70
2012,01,14,12,27,4.70
2012,01,14,12,28,4.80
2012,01,14,12,29,4.80
2012,01,14,12,30,4.90
2012,01,14,12,31,4.90
2012,01,14,12,32,5.00
2012,01,14,12,33,5.10
2012,01,14,12,34,5.10
2012,01,14,12,35,5.10
2012,01,14,12,36,5.10
2012,01,14,12,37,5.00
2012,01,14,12,38,5.00
2012,01,14,12,39,4.90
2012,01,14,12,40,4.90
2012,01,14,12,41,4.90
2012,01,14,12,42,4.80
2012,01,14,12,43,4.80
2012,01,14,12,44,4.80
2012,01,14,12,45,4.80
2012,01,14,12,46,4.80
2012,01,14,12,47,4.80
2012,01,14,12,48,4.80
2012,01,14,12,49,4.90
2012,01,14,12,50,4.90
2012,01,14,12,51,5.00
2012,01,14,12,52,5.10
2012,01,14,12,53,5.10
2012,01,14,12,54,5.20
2012,01,14,12,55,5.20
2012,01,14,12,56,5.20
2012,01,14,12,57,5.20
2012,01,14,12,58,5.10
2012,01,14,12,59,5.10
2012,01,14,13,00,5.10
2012,01,14,13,01,5.10
2012,01,14,13,02,5.10
2012,01,14,13,03,5.10
2012,01,14,13,04,5.10
2012,01,14,13,05,5.10
2012,01,14,13,06,5.00
2012,01,14,13,07,5.10
2012,01,14,13,08,5.10
2012,01,14,13,09,5.10
2012,01,14,13,10,5.00
2012,01,14,13,11,4.90
2012,01,14,13,12,4.90
2012,01,14,13,13,4.80
2012,01,14,13,14,4.80
2012,01,14,13,15,4.80
2012,01,14,13,16,4.70
2012,01,14,13,17,4.80
2012,01,14,13,18,4.80
2012,01,14,13,19,4.80
2012,01,14,13,20,4.80
2012,01,14,13,21,4.70
2012,01,14,13,22,4.70
2012,01,14,13,23,4.60
2012,01,14,13,24,4.60
2012,01,14,13,25,4.50
2012,01,14,13,26,4.50
2012,01,14,13,27,4.40
2012,01,14,13,28,4.40
2012,01,14,13,29,4.30
2012,01,14,13,30,4.30
2012,01,14,13,31,4.20
2012,01,14,13,32,4.20
2012,01,14,13,33,4.20
2012,01,14,13,34,4.20
2012,01,14,13,35,4.20
2012,01,14,13,36,4.10
2012,01,14,13,37,4.10
2012,01,14,13,38,4.10
2012,01,14,13,39,4.10
2012,01,14,13,40,4.00
2012,01,14,13,41,4.00
2012,01,14,13,42,4.00
2012,01,14,13,43,4.00
2012,01,14,13,44,4.00
2012,01,14,13,45,3.90
2012,01,14,13,46,3.90
2012,01,14,13,47,3.80
2012,01,14,13,48,3.80
2012,01,14,13,49,3.80
2012,01,14,13,50,3.80
2012,01,14,13,51,3.80
2012,01,14,13,52,3.80
2012,01,14,13,53,3.80
2012,01,14,13,54,3.80
2012,01,14,13,55,3.80
2012,01,14,13,56,3.80
2012,01,14,13,57,3.80
2012,01,14,13,58,3.90
2012,01,14,13,59,3.90
2012,01,14,14,00,3.90
2012,01,14,14,01,3.90
2012,01,14,14,02,3.90
2012,01,14,14,03,3.90
2012,01,14,14,04,3.90
2012,01,14,14,05,3.90
2012,01,14,14,06,3.90
2012,01,14,14,07,3.90
2012,01,14,14,08,3.90
2012,01,14,14,09,3.90
2012,01,14,14,10,3.90
2012,01,14,14,11,3.90
2012,01,14,14,12,3.90
2012,01,14,14,13,3.80
2012,01,14,14,14,3.80
2012,01,14,14,15,3.80
2012,01,14,14,16,3.80
2012,01,14,14,17,3.80
2012,01,14,14,18,3.80
2012,01,14,14,19,3.80
2012,01,14,14,20,3.90
2012,01,14,14,21,3.90
2012,01,14,14,22,4.00
2012,01,14,14,23,4.10
2012,01,14,14,24,4.10
2012,01,14,14,25,4.20
2012,01,14,14,26,4.30
2012,01,14,14,27,4.40
2012,01,14,14,28,4.50
2012,01,14,14,29,4.50
2012,01,14,14,30,4.60
2012,01,14,14,31,4.70
2012,01,14,14,32,4.70
2012,01,14,14,33,4.80
2012,01,14,14,34,4.90
2012,01,14,14,35,4.90
2012,01,14,14,36,4.90
2012,01,14,14,37,5.00
2012,01,14,14,38,5.10
2012,01,14,14,39,5.10
2012,01,14,14,40,5.10
2012,01,14,14,41,5.10
2012,01,14,14,42,5.10
2012,01,14,14,43,5.10
2012,01,14,14,44,5.10
2012,01,14,14,45,5.00
2012,01,14,14,46,5.00
2012,01,14,14,47,5.00
2012,01,14,14,48,5.00
2012,01,14,14,49,5.00
2012,01,14,14,50,5.10
2012,01,14,14,51,5.10
2012,01,14,14,52,5.10
2012,01,14,14,53,5.10
2012,01,14,14,54,5.10
2012,01,14,14,55,5.10
2012,01,14,14,56,5.20
2012,01,14,14,57,5.20
2012,01,14,14,58,5.20
2012,01,14,14,59,5.20
2012,01,14,15,00,5.30
2012,01,14,15,01,5.30
2012,01,14,15,02,5.20
2012,01,14,15,03,5.20
2012,01,14,15,04,5.30
2012,01,14,15,05,5.20
2012,01,14,15,06,5.20
2012,01,14,15,07,5.20
2012,01,14,15,08,5.20
2012,01,14,15,09,5.20
2012,01,14,15,10,5.20
2012,01,14,15,11,5.10
2012,01,14,15,12,5.10
2012,01,14,15,13,5.10
2012,01,14,15,14,5.10
2012,01,14,15,15,5.10
2012,01,14,15,16,5.10
2012,01,14,15,17,5.00
2012,01,14,15,18,5.00
2012,01,14,15,19,4.90
2012,01,14,15,20,4.90
2012,01,14,15,21,4.80
2012,01,14,15,22,4.80
2012,01,14,15,23,4.80
2012,01,14,15,24,4.70
2012,01,14,15,25,4.70
2012,01,14,15,26,4.70
2012,01,14,15,27,4.60
2012,01,14,15,28,4.60
2012,01,14,15,29,4.60
2012,01,14,15,30,4.50
2012,01,14,15,31,4.50
2012,01,14,15,32,4.50
2012,01,14,15,33,4.40
2012,01,14,15,34,4.40
2012,01,14,15,35,4.40
2012,01,14,15,36,4.30
2012,01,14,15,37,4.30
2012,01,14,15,38,4.30
2012,01,14,15,39,4.30
2012,01,14,15,40,4.20
2012,01,14,15,41,4.20
2012,01,14,15,42,4.20
2012,01,14,15,43,4.10
2012,01,14,15,44,4.10
2012,01,14,15,45,4.10
2012,01,14,15,46,4.00
2012,01,14,15,47,4.00
2012,01,14,15,48,4.00
2012,01,14,15,49,4.00
2012,01,14,15,50,4.00
2012,01,14,15,51,4.00
2012,01,14,15,52,4.00
2012,01,14,15,53,3.90
2012,01,14,15,54,3.80
2012,01,14,15,55,3.80
2012,01,14,15,56,3.80
2012,01,14,15,57,3.70
2012,01,14,15,58,3.70
2012,01,14,15,59,3.60
2012,01,14,16,00,3.60
2012,01,14,16,01,3.50
2012,01,14,16,02,3.40
2012,01,14,16,03,3.40
2012,01,14,16,04,3.30
2012,01,14,16,05,3.30
2012,01,14,16,06,3.20
2012,01,14,16,07,3.20
2012,01,14,16,08,3.10
2012,01,14,16,09,3.10
2012,01,14,16,10,3.00
2012,01,14,16,11,3.00
2012,01,14,16,12,2.90
2012,01,14,16,13,2.80
2012,01,14,16,14,2.80
2012,01,14,16,15,2.80
2012,01,14,16,16,2.70
2012,01,14,16,17,2.70
2012,01,14,16,18,2.60
2012,01,14,16,19,2.60
2012,01,14,16,20,2.50
2012,01,14,16,21,2.50
2012,01,14,16,22,2.40
2012,01,14,16,23,2.40
2012,01,14,16,24,2.40
2012,01,14,16,25,2.40
2012,01,14,16,26,2.30
2012,01,14,16,27,2.30
2012,01,14,16,28,2.30
2012,01,14,16,29,2.30
2012,01,14,16,30,2.20
2012,01,14,16,31,2.20
2012,01,14,16,32,2.20
2012,01,14,16,33,2.20
2012,01,14,16,34,2.20
2012,01,14,16,35,2.20
2012,01,14,16,36,2.20
2012,01,14,16,37,2.10
2012,01,14,16,38,2.10
2012,01,14,16,39,2.10
2012,01,14,16,40,2.10
2012,01,14,16,41,2.10
2012,01,14,16,42,2.00
2012,01,14,16,43,2.00
2012,01,14,16,44,2.00
2012,01,14,16,45,1.90
2012,01,14,16,46,1.90
2012,01,14,16,47,1.90
2012,01,14,16,48,1.90
2012,01,14,16,49,1.80
2012,01,14,16,50,1.80
2012,01,14,16,51,1.80
2012,01,14,16,52,1.70
2012,01,14,16,53,1.70
2012,01,14,16,54,1.70
2012,01,14,16,55,1.60
2012,01,14,16,56,1.60
2012,01,14,16,57,1.60
2012,01,14,16,58,1.50
2012,01,14,16,59,1.50
2012,01,14,17,00,1.50
2012,01,14,17,01,1.40
2012,01,14,17,02,1.40
2012,01,14,17,03,1.30
2012,01,14,17,04,1.30
2012,01,14,17,05,1.30
2012,01,14,17,06,1.30
2012,01,14,17,07,1.30
2012,01,14,17,08,1.30
2012,01,14,17,09,1.30
2012,01,14,17,10,1.20
2012,01,14,17,11,1.20
2012,01,14,17,12,1.20
2012,01,14,17,13,1.20
2012,01,14,17,14,1.10
2012,01,14,17,15,1.10
2012,01,14,17,16,1.10
2012,01,14,17,17,1.10
2012,01,14,17,18,1.10
2012,01,14,17,19,1.10
2012,01,14,17,20,1.10
2012,01,14,17,21,1.10
2012,01,14,17,22,1.10
2012,01,14,17,23,1.10
2012,01,14,17,24,1.00
2012,01,14,17,25,1.00
2012,01,14,17,26,1.00
2012,01,14,17,27,1.00
2012,01,14,17,28,1.00
2012,01,14,17,29,0.90
2012,01,14,17,30,0.90
2012,01,14,17,31,0.90
2012,01,14,17,32,0.90
2012,01,14,17,33,0.90
2012,01,14,17,34,0.90
2012,01,14,17,35,0.90
2012,01,14,17,36,0.80
2012,01,14,17,37,0.80
2012,01,14,17,38,0.80
2012,01,14,17,39,0.80
2012,01,14,17,40,0.80
2012,01,14,17,41,0.70
2012,01,14,17,42,0.70
2012,01,14,17,43,0.70
2012,01,14,17,44,0.70
2012,01,14,17,45,0.70
2012,01,14,17,46,0.70
2012,01,14,17,47,0.70
2012,01,14,17,48,0.60
2012,01,14,17,49,0.60
2012,01,14,17,50,0.60
2012,01,14,17,51,0.60
2012,01,14,17,52,0.50
2012,01,14,17,53,0.50
2012,01,14,17,54,0.40
2012,01,14,17,55,0.40
2012,01,14,17,56,0.40
2012,01,14,17,57,0.40
2012,01,14,17,58,0.40
2012,01,14,17,59,0.30
2012,01,14,18,00,0.40
2012,01,14,18,01,0.40
2012,01,14,18,02,0.40
2012,01,14,18,03,0.40
2012,01,14,18,04,0.40
2012,01,14,18,05,0.40
2012,01,14,18,06,0.40